Regional Weather Roundup
Issued by NWS

Home | Current Version | Previous Version | Graphics & Text | Print | Product List | Glossary On
Versions: 1 2 3 4 5 6 7 8 9 10 11 12 13 14 15 16 17 18 19 20 21 22 23 24 25 26 27 28 29 30 31 32 33 34 35 36 37 38 39 40 41 42 43 44 45 46 47 48 49 50
000
ASUS43 KLSX 251659
RWRMO

WEATHER SUMMARY FOR MISSOURI
NATIONAL WEATHER SERVICE SPRINGFIELD MO
1200 PM CDT TUE JUL 25 2017

NOTE: "FAIR" INDICATES FEW OR NO CLOUDS BELOW 12,000 FEET WITH NO
       SIGNIFICANT WEATHER AND/OR OBSTRUCTIONS TO VISIBILITY.
       CURRENT SKY AND/OR WEATHER CONDITIONS ARE NOT AVAILABLE FOR
       CHILLICOTHE AND FARMINGTON.

MOZ001>031-035>038-043-044-053-054-251800-
...NORTHERN AND WESTERN MISSOURI...

CITY           SKY/WX    TMP DP  RH WIND       PRES   REMARKS
KANSAS CTY INT SUNNY     88  73  61 VRB6      30.07F HX  95
KANSAS C DTWN  SUNNY     89  73  59 CALM      30.05F HX  97
LEE`S SUMMIT   SUNNY     87  74  64 SE3       30.08F HX  95
ST JOSEPH      SUNNY     87  75  67 S7        30.05F HX  96
CHILLICOTHE      N/A     83  73  72 S7        30.10S
KIRKSVILLE     SUNNY     84  67  56 VRB6      30.13R

$$
MOZ066>068-077>081-088>096-101>105-251800-
...SOUTHWEST MISSOURI...

CITY           SKY/WX    TMP DP  RH WIND       PRES   REMARKS
SPRINGFIELD    SUNNY     92  69  47 CALM      30.10F HX  97
JOPLIN         MOSUNNY   93  73  52 S8        30.09F HX 102
BRANSON        PTSUNNY   90  72  55 W3        30.13F HX  96

$$
MOZ032>034-039>042-045>050-055>058-069>072-251800-
...CENTRAL MISSOURI...

CITY           SKY/WX    TMP DP  RH WIND       PRES   REMARKS
COLUMBIA       SUNNY     86  73  65 E3        30.10F HX  93
JEFFERSON CITY SUNNY     86  75  69 SE7       30.08F HX  95
ROLLA          MOSUNNY   87  68  52 E6        30.12S HX  90
SEDALIA        SUNNY     87  75  67 CALM      30.10F HX  96
WARRENSBURG    SUNNY     86  70  58 E3        30.08S HX  90
OSAGE BEACH    SUNNY     88  69  53 CALM      30.10S HX  92

$$
MOZ051-052-059>065-251800-
...EAST CENTRAL MISSOURI...

CITY           SKY/WX    TMP DP  RH WIND       PRES   REMARKS
ST LOUIS INTL  MOSUNNY   88  70  55 VRB6      30.10F HX  93
SPIRIT OF STL  PTSUNNY   86  72  62 VRB5      30.08F HX  92
ST CHARLES     MOSUNNY   85  70  60 SE8       30.09F

$$
MOZ072>076-082>087-097>100-106>115-251800-
...SOUTH CENTRAL AND SOUTHEAST MISSOURI...

CITY           SKY/WX    TMP DP  RH WIND       PRES   REMARKS
CAPE GIRARDEAU MOSUNNY   86  78  77 N7        30.06F HX  98
FARMINGTON     PTSUNNY   86  74  67 S5        30.11S HX  94
POPLAR BLUFF   MOSUNNY   89  79  72 S7        30.06S HX 104
WEST PLAINS    MOSUNNY   94  68  42 VRB5      30.11S HX  98

$$




USA.gov is the U.S. government's official web portal to all federal, state and local government web resources and services.